Regional Weather Roundup
Issued by NWS

Home | Current Version | Previous Version | Text Only | Print | Product List | Glossary Off
Versions: 1 2 3 4 5 6 7 8 9 10 11 12 13 14 15 16 17 18 19 20 21 22 23 24 25 26 27 28 29 30 31 32 33 34 35 36 37 38 39 40 41 42 43 44 45 46 47 48 49 50

776
ASUS43 KLMK 180102
RWRKY
KENTUCKY REGIONAL WEATHER ROUNDUP
NATIONAL WEATHER SERVICE LOUISVILLE KY
800 PM EST FRI NOV 17 2017

NOTE "FAIR" INDICATES FEW OR NO CLOUDS BELOW 12,000 FEET
WITH NO SIGNIFICANT WEATHER AND/OR OBSTRUCTIONS TO VISIBILITY.

KYZ001>023-026-027-061>063-070>075-180200-
WESTERN AND SOUTH CENTRAL KENTUCKY

CITY           SKY/WX    TMP DP  RH WIND       PRES   REMARKS
PADUCAH        MOCLDY    62  45  53 S16G22    29.78F
HENDERSON      CLOUDY    54  42  64 SE10      29.81F
OWENSBORO      CLOUDY    54  41  61 SE10      29.84F
HOPKINSVILLE   CLOUDY    62  33  34 S10       29.86F
BOWLING GREEN  PTCLDY    56  41  57 SE8       29.91F
GLASGOW        NOT AVBL
$$

KYZ024-025-028>034-038-045-046-053-180200-
NORTH CENTRAL KENTUCKY

CITY           SKY/WX    TMP DP  RH WIND       PRES   REMARKS
LOUISVILLE/SDF MOCLDY    50  38  63 SE8       29.89F
LOUISVILLE/LOU CLOUDY    50  39  66 SE7       29.91F
FORT KNOX      PTCLDY    49  39  66 SE7       29.87F
$$

KYZ035>037-039>044-047>052-055>060-089>105-180200-
NORTHEAST KENTUCKY

CITY           SKY/WX    TMP DP  RH WIND       PRES   REMARKS
LEXINGTON      MOCLDY    47  35  63 SE7       29.96F
COVINGTON      CLOUDY    46  36  68 S8        29.93F
FRANKFORT      PTCLDY    46  36  68 SE7       29.93F
$$

KYZ054-064>069-076>088-106>120-180200-
SOUTHEAST KENTUCKY

CITY           SKY/WX    TMP DP  RH WIND       PRES   REMARKS
JACKSON        MOCLDY    49  29  46 SE5       29.98F
LONDON         CLEAR     49  33  54 CALM      29.99F
SOMERSET       MOCLDY    50  36  57 S5        30.01R
MIDDLESBORO    PTCLDY    43  37  78 CALM      30.03F
MONTICELLO     PTCLDY    53  36  52 VRB6      30.01F
$$





USA.gov is the U.S. government's official web portal to all federal, state and local government web resources and services.